Location: Bois de la Silve
(44.4667°N, 6.7833°E)
Time: 19:46:42
(UTC+00:00)

CZ-4C R/B - Pass Details

Date: 14 July 2020
Orbit: 464 x 636 km, 98.0° (Epoch: 14 August)

Event Time Altitude Azimuth Distance (km) Brightness Sun altitude
Exits shadow 01:11:57 55° 148° (SSE) 635 3.3 -20.6°
Maximum altitude 01:12:42 78° 75° (ENE) 538 3.2 -20.5°
Drops below altitude 10° 01:16:24 10° 350° (N) 1,720 6.6 -20.2°
Sets 01:18:26 0° 349° (NNW) 2,585 7.6 -20.1°
